Location: Broletto
(44.6000°N, 10.5833°E)
Time: 06:40:32
(UTC+00:00)

Timation 1 Rocket - Pass Details

Date: 18 April 2021
Orbit: 900 x 907 km, 70.0° (Epoch: 05 May)

Event Time Altitude Azimuth Distance (km) Brightness Sun altitude
Exits shadow 21:33:37 82° 320° (NW) 915 4.3 -29.5°
Drops below altitude 10° 21:39:30 10° 26° (NNE) 2,586 7.1 -30.0°
Sets 21:42:01 0° 27° (NNE) 3,530 7.9 -30.3°
